Regional Weather Roundup
Issued by NWS

Home | Current Version | Previous Version | Text Only | Print | Product List | Glossary Off
Versions: 1 2 3 4 5 6 7 8 9 10 11 12 13 14 15 16 17 18 19 20 21 22 23 24 25 26 27 28 29 30 31 32 33 34 35 36 37 38 39 40 41 42 43 44 45 46 47 48 49 50

000
ASUS43 KFSD 041202
RWRSD

WEATHER ROUNDUP FOR SOUTH DAKOTA
NATIONAL WEATHER SERVICE SIOUX FALLS SD
600 AM CST WED MAR 04 2015

NOTE: "FAIR" INDICATES FEW OR NO CLOUDS BELOW 12,000 FEET WITH NO
SIGNIFICANT WEATHER AND/OR OBSTRUCTIONS TO VISIBILITY.


SDZ001>005-009-010-012>017-041300-
NORTHWEST AND NORTH CENTRAL SOUTH DAKOTA

CITY           SKY/WX    TMP DP  RH WIND       PRES   REMARKS
BUFFALO          N/A      1  -5  75 NW10      30.03R WCI -15
FAITH            N/A     -2  -8  76 W7        30.14R WCI -15
MOBRIDGE       CLEAR      3  -8  60 NW21G30   30.14R WCI -18
$$

SDZ012>016-024>037-041>051-057-063-072>074-041300-
SOUTHWEST AND SOUTH CENTRAL SOUTH DAKOTA

CITY           SKY/WX    TMP DP  RH WIND       PRES   REMARKS
RAPID CTY ARPT CLEAR      2  -5  72 N10       30.10R WCI -14
PIERRE         CLEAR      7  -1  70 NW15      30.18R WCI -10
CUSTER         CLEAR      1  -7  68 W12       29.90R WCI -16
ELLSWORTH AFB  CLEAR      8  -3  60 N10       30.09R WCI  -7
PHILIP         CLEAR      4  -5  66 NW12      30.18R WCI -12
PINE RIDGE     CLEAR     -2  -8  76 SW5       30.12R WCI -12
SPEARFISH      MOCLDY     5  -2  72 NW13G20   30.05R WCI -12
WINNER         FAIR       6  -6  57 W12       30.17R WCI  -9
$$

SDZ004>011-016>023-039-040-041300-
NORTHEAST SOUTH DAKOTA

CITY           SKY/WX    TMP DP  RH WIND       PRES   REMARKS
ABERDEEN       LGT SNOW   2  -3  80 SW5       30.15S WCI  -8
WATERTOWN      CLOUDY    -6 -11  79 W6        30.10R WCI -19
SISSETON         N/A      1  -6  72 NW14      30.14  WCI -17
$$

SDZ017-020-022-023-036>040-048>070-041300-
SOUTHEAST SOUTH DAKOTA

CITY           SKY/WX    TMP DP  RH WIND       PRES   REMARKS
SIOUX FALLS    PTCLDY     1  -4  79 CALM      30.16R
HURON          MOCLDY    -1  -6  79 SW6       30.16R WCI -13
MITCHELL       CLEAR      2  -4  76 W7        30.19R WCI -11
YANKTON        PTCLDY     7   0  72 CALM      30.22R
$$

ABBREVIATIONS USED IN REMARKS
   TC - TEMPERATURE IN CELSIUS
  WCI - WIND CHILL INDEX
   HX - HEAT INDEX
  VSB - VISIBILITY




USA.gov is the U.S. government's official web portal to all federal, state and local government web resources and services.